Regional Weather Roundup
Issued by NWS

Home | Current Version | Previous Version | Text Only | Print | Product List | Glossary On
Versions: 1 2 3 4 5 6 7 8 9 10 11 12 13 14 15 16 17 18 19 20 21 22 23 24 25 26 27 28 29 30 31 32 33 34 35 36 37 38 39 40 41 42 43 44 45 46 47 48 49 50
000
ASUS45 KCYS 291010
RWRWY

WYOMING REGIONAL WEATHER ROUNDUP
NATIONAL WEATHER SERVICE CHEYENNE WY
400 AM MDT MON MAY 29 2017

NOTE:  "FAIR" INDICATES FEW OR NO CLOUDS BELOW 12,000 FEET
WITH NO SIGNIFICANT WEATHER AND/OR OBSTRUCTIONS TO VISIBILITY.

WYZ001-291100-
YELLOWSTONE NATIONAL PARK

CITY           SKY/WX    TMP DP  RH WIND       PRES   REMARKS
LK YELLOWSTONE   N/A     28  28 100 CALM      30.39S
W YELLOWSTONE  NOT AVBL

$$
WYZ002>013-054>058-071-098>099-291100-
NORTHERN WYOMING

CITY           SKY/WX    TMP DP  RH WIND       PRES   REMARKS
JACKSON        FAIR      37  36  93 N5        30.32S WCI  34
CODY           FAIR      49  41  74 S3        30.28R
GREYBULL       FAIR      47  39  74 SE7       30.23
WORLAND        MOCLDY    49  47  93 S8        30.23S
SHERIDAN       FAIR      50  40  68 NW8       30.21S
BUFFALO        FAIR      51  37  58 NW9       30.23F
GILLETTE       FAIR      46  41  82 W12       30.19S
HULETT         FAIR      45  34  65 W3        30.18S
NEWCASTLE      FAIR      41  37  87 CALM      30.18R

$$
WYZ014>020-022>026-101>103-291100-
CENTRAL WYOMING

CITY           SKY/WX    TMP DP  RH WIND       PRES   REMARKS
BIG PINEY      FAIR      35  30  82 NW6       30.34R WCI  30
PINEDALE       FAIR      34  30  86 CALM      30.34S
DUBOIS         FAIR      36  32  87 W10       30.35R WCI  28
LANDER         FAIR      45  38  76 SW7       30.27F
RIVERTON       FAIR      45  41  86 W7        30.27F
CASPER         FAIR      41  39  93 W5        30.25S
DOUGLAS        FAIR      44  41  89 NW8       30.24S

$$
WYZ021-027>030-104>119-291100-
SOUTHERN WYOMING

CITY           SKY/WX    TMP DP  RH WIND       PRES   REMARKS
EVANSTON       FAIR      45  31  58 E8        30.29S
KEMMERER         N/A     41  34  75 N9        30.33S
FORT BRIDGER   SUNNY     43  32  65 NE5       30.34R
ROCK SPRINGS   MOCLDY    44  36  73 E7        30.31F
DIXON            N/A     41  33  75 NE6       30.30S
RAWLINS        FAIR      39  34  82 NW3       30.31S
SARATOGA       PTSUNNY   37  37 100 CALM      30.33S
LARAMIE        FAIR      34  33  96 SW7       30.32S WCI  28
CHEYENNE       FAIR      43  36  76 W10       30.27F
TORRINGTON     FAIR      47  41  80 NW5       30.18R
PINE BLUFFS    FAIR      41  39  93 MISG      30.24S

$$



USA.gov is the U.S. government's official web portal to all federal, state and local government web resources and services.